Location: Gloden
(48.4833°N, 15.3167°E)
Time: 08:54:44
(UTC+00:00)

Cosmos 2221 Rocket - Pass Details

Date: 15 December 2019
Orbit: 620 x 648 km, 82.5° (Epoch: 18 January)

Event Time Altitude Azimuth Distance (km) Brightness Sun altitude
Exits shadow 04:21:52 68° 293° (WNW) 672 3.4 -22.3°
Maximum altitude 04:22:09 71° 263° (W) 661 3.4 -22.3°
Drops below altitude 10° 04:26:32 10° 180° (S) 1,990 6.3 -21.5°
Sets 04:28:45 0° 178° (S) 2,895 7.2 -21.2°
